Burbank, CA

5:42 AM PDT on March 29, 2017 (GMT -0700)
Burbank-Glendale-Pasadena

Weather History for KBUR - May, 2014

Change the Weather History Date:

Thursday, May 1, 2014

  Actual Average Record
Temperature  
Mean Temperature 78 °F 64 °F  
Max Temperature 95 °F 75 °F 98 °F (1947)
Min Temperature 61 °F 53 °F 40 °F (1967)
Degree Days  
Heating Degree Days 0 3  
Month to date heating degree days 0 3  
Since 1 July heating degree days 637 1500  
Cooling Degree Days 13 2  
Month to date cooling degree days 13 2  
Year to date cooling degree days 174 53  
Growing Degree Days 28 (Base 50)    
Moisture  
Dew Point 17 °F    
Average Humidity 12    
Maximum Humidity 21    
Minimum Humidity 3    
Precipitation  
Precipitation 0.00 in 0.02 in 0.26 in (1955)
Month to date precipitation 0.00 0.02  
Year to date precipitation 4.91 12.11  
Since 1 July precipitation 5.34  
Sea Level Pressure  
Sea Level Pressure 29.97 in    
Wind  
Wind Speed 5 mph (ENE)    
Max Wind Speed 21 mph    
Max Gust Speed 28 mph    
Visibility 10 miles    
Events      
T = Trace of Precipitation, MM = Missing Value Source: NWS Daily Summary

Daily Weather History Graph

Daily Weather History Graph

Search for Another Location

Airport or City:

Trip Planner

Search our weather history database for the weather conditions in past years. The results will help you decide how hot, cold, wet, or windy it might be!

Date:

Astronomy

May. 01, 2014 Rise Set
Actual Time 6:03 AM PDT 7:37 PM PDT
Civil Twilight 5:37 AM PDT 8:04 PM PDT
Nautical Twilight 5:05 AM PDT 8:36 PM PDT
Astronomical Twilight 4:31 AM PDT 9:10 PM PDT
Moon 7:57 AM PDT (5/1) 10:12 PM PDT (5/1)
Length of Visible Light 14h 27m
Length of Day
13h 33m
Waxing Crescent, 7% of the Moon is Illuminated
May 1
Waxing Crescent
May 6
First Quarter
May 14
Full
May 21
Last Quarter
May 28
New

Hourly Weather History & Observations

Time (PDT) Temp. Dew Point Humidity Pressure Visibility Wind Dir Wind Speed Gust Speed Precip Events Conditions
12:53 AM 68.0 °F 15.1 °F 13% 29.95 in 10.0 mi NW 5.8 mph - N/A   Clear
1:53 AM 66.9 °F 17.1 °F 15% 29.95 in 10.0 mi Calm Calm - N/A   Clear
2:53 AM 64.9 °F 19.0 °F 17% 29.95 in 10.0 mi Calm Calm - N/A   Clear
3:53 AM 64.0 °F 19.9 °F 18% 29.95 in 10.0 mi Calm Calm - N/A   Clear
4:53 AM 62.1 °F 23.0 °F 22% 29.97 in 10.0 mi NE 4.6 mph - N/A   Clear
5:53 AM 63.0 °F 21.0 °F 20% 29.99 in 10.0 mi NNW 3.5 mph - N/A   Clear
6:53 AM 64.0 °F 21.9 °F 20% 30.01 in 10.0 mi Variable 5.8 mph - N/A   Clear
7:53 AM 70.0 °F 23.0 °F 17% 30.01 in 10.0 mi WNW 4.6 mph - N/A   Clear
8:53 AM 78.1 °F 21.9 °F 12% 30.02 in 10.0 mi East 9.2 mph - N/A   Clear
9:53 AM 82.0 °F 17.1 °F 9% 30.02 in 10.0 mi Variable 5.8 mph - N/A   Clear
10:53 AM 86.0 °F 17.1 °F 8% 30.02 in 10.0 mi Calm Calm - N/A   Clear
11:53 AM 90.0 °F 8.1 °F 5% 30.00 in 10.0 mi ESE 11.5 mph 23.0 mph N/A   Clear
12:53 PM 91.9 °F 3.9 °F 4% 29.98 in 10.0 mi NNE 15.0 mph 27.6 mph N/A   Clear
1:09 PM 93.2 °F 5.0 °F 4% 30.02 in 10.0 mi NE 18.4 mph 25.3 mph N/A   Clear
1:53 PM 93.9 °F 3.9 °F 4% 29.96 in 10.0 mi NE 9.2 mph - N/A   Clear
2:53 PM 91.9 °F 12.9 °F 5% 29.95 in 10.0 mi SSE 9.2 mph - N/A   Clear
3:53 PM 91.9 °F 15.1 °F 6% 29.93 in 10.0 mi South 9.2 mph - N/A   Clear
4:53 PM 89.1 °F 15.1 °F 6% 29.92 in 10.0 mi South 11.5 mph - N/A   Clear
5:53 PM 87.1 °F 16.0 °F 7% 29.92 in 10.0 mi SSE 8.1 mph - N/A   Clear
6:53 PM 84.9 °F 17.1 °F 8% 29.92 in 10.0 mi ESE 5.8 mph - N/A   Clear
7:53 PM 81.0 °F 19.0 °F 10% 29.93 in 10.0 mi South 3.5 mph - N/A   Clear
8:53 PM 81.0 °F 19.0 °F 10% 29.94 in 10.0 mi Calm Calm - N/A   Clear
9:53 PM 78.1 °F 18.0 °F 10% 29.96 in 10.0 mi WNW 4.6 mph - N/A   Clear
10:53 PM 75.0 °F 21.9 °F 14% 29.95 in 10.0 mi WNW 3.5 mph - N/A   Clear
11:53 PM 75.0 °F 23.0 °F 14% 29.94 in 10.0 mi NW 3.5 mph - N/A   Clear